Zurück zum Katalog

STARLINK-35264

AktivKommunikationVLEO
NORAD 65900·PAYLOAD·🇺🇸 United States

Gestartet Oct 7, 2025 von Cape Canaveral Space Force Station

Loading…

Nächste Überflüge (nächste 24 Stunden)

TLE

AktuellSource: CelesTrak SupGP

Epoche: Sep 14, 2026, 15:51 UTC

1 65900C 25224U   26257.66090278  .00036497  00000+0  10787-2 0  2575
2 65900  53.1583 209.0336 0001232  99.2733 161.5620 15.34359948    14

Verfolge STARLINK-35264 in Echtzeit mit AllMySat

Download on the App Store